Location: Plum
(40.5000°N, 79.7500°W)
Time: 12:31:59
(UTC-04:00)

Daily predictions for brighter satellites

Satellite Brightness Start Highest point End
(mag) Time Altitude Azimuth Time Altitude Azimuth Time Altitude Azimuth
Meteor 1-15 Rocket 4.3 19:39:14 10° S 19:45:05 68° E 19:50:54 10° NNE
Cosmos 1898 Rocket 3.8 19:40:54 10° N 19:45:54 46° ENE 19:50:51 10° SE
Tiangong 2 2.8 19:51:32 10° W 19:54:22 29° SSW 19:57:12 10° SSE
COSMO-SKYMED 1 3.8 19:51:10 10° N 19:55:21 48° WNW 19:59:30 10° SSW
Cosmos 1707 3.4 19:53:16 10° N 19:56:53 34° ENE 20:00:28 10° SE
Cosmos 1709 Rocket 4.0 19:54:16 10° S 20:00:35 77° E 20:06:59 10° N
Cosmos 2150 Rocket 4.5 19:56:07 10° N 20:01:10 42° ENE 20:06:15 10° SE
Cosmos 990 Rocket 4.4 19:57:08 10° N 20:02:02 41° ENE 20:06:52 10° SE
Cosmos 2369 Rocket 2.4 19:56:25 10° NNW 20:02:05 77° WSW 20:07:40 10° SSE
Cosmos 1340 Rocket 2.9 20:00:15 10° N 20:04:15 56° ENE 20:08:15 10° SSE
FENGYUN 3A 3.7 19:59:25 10° SSE 20:04:46 84° WSW 20:10:10 10° NNW
Cosmos 1758 Rocket 3.7 20:00:47 10° N 20:05:14 59° E 20:09:39 10° SSE
ALOS 2.6 20:04:31 10° S 20:09:10 69° W 20:13:50 10° NNW
Cosmos 389 Rocket 2.4 20:05:47 10° S 20:09:19 81° E 20:12:49 10° NNE
Envisat 4.1 20:05:30 11° ESE 20:09:19 24° ENE 20:13:21 10° NNE
Cosmos 1656 Rocket 4.4 20:04:46 10° N 20:09:52 33° ENE 20:14:09 13° ESE
BREEZE M DEB (TANK) 4.0 20:01:48 10° WNW 20:10:25 50° NNE 20:12:59 16° E
Lacrosse 5 2.6 20:05:45 10° NW 20:10:41 53° SW 20:15:36 10° SSE
Cosmos 1726 Rocket 3.5 20:08:25 10° S 20:12:46 70° E 20:17:06 10° NNE
Cosmos 1271 Rocket 3.0 20:11:46 10° SSW 20:15:29 68° W 20:19:16 10° N
FREGAT/IRIS 2.8 20:14:58 10° S 20:17:59 72° W 20:21:01 10° NNW
Resurs 01 Rocket 2.3 20:16:42 12° SE 20:20:18 34° ENE 20:24:18 10° N
Cosmos 2263 4.4 20:14:47 10° NNW 20:20:24 75° WSW 20:26:02 10° SSE
BREEZE-M DEB (TANK) 4.4 20:17:51 10° WNW 20:21:20 36° NNE 20:31:33 10° ENE
Cosmos 858 Rocket 4.5 20:17:53 10° NNW 20:23:11 85° ENE 20:28:25 10° SSE
Cosmos 1943 4.3 20:18:28 10° SW 20:23:55 48° WNW 20:29:26 10° NNE
Cosmos 2184 Rocket 4.2 20:18:27 10° SSE 20:24:24 47° E 20:30:26 10° NNE
USA 186 3.2 20:25:29 16° NE 20:25:29 16° NE 20:26:26 10° NNE
Cosmos 2298 Rocket 4.0 20:19:35 10° NNW 20:24:57 77° ENE 20:30:17 10° SSE
CZ-2D R/B 3.4 20:26:32 13° SSE 20:29:43 50° ENE 20:33:26 10° N
FALCON 9 R/B 2.3 20:27:07 10° SW 20:30:01 38° SSE 20:33:19 21° ESE
GP-B 4.1 20:27:01 10° NNE 20:30:46 26° E 20:31:49 24° ESE
ORS 1 (USA 231) 4.3 20:29:58 10° W 20:32:54 76° S 20:33:49 40° E
SJ-6B 3.0 20:29:01 10° S 20:33:04 76° WSW 20:37:03 10° NNW
Cosmos 1937 Rocket 3.5 20:28:18 10° NNW 20:33:39 89° ENE 20:38:56 10° SSE
Cosmos 841 Rocket 3.4 20:28:40 10° S 20:33:42 58° ESE 20:38:45 10° NNE
Cosmos 1378 3.1 20:31:40 10° N 20:35:27 86° W 20:39:13 10° S
Meteor 1-24 Rocket 3.9 20:32:56 10° N 20:38:49 55° ENE 20:44:00 13° SSE
Cosmos 371 Rocket 4.5 20:34:34 10° SW 20:39:14 46° WNW 20:43:58 10° N
USA 229 DEB 4.0 20:32:20 10° NW 20:39:32 78° WSW 20:46:52 10° SSE
USA 229 3.9 20:32:27 10° NW 20:39:38 78° WSW 20:46:57 10° SSE
NOSS 3-1 (A) 4.3 20:36:39 10° NNW 20:44:01 52° NE 20:48:54 25° ESE
HJ-1C 4.3 20:43:02 10° S 20:46:17 48° W 20:49:34 10° NNW
Cosmos 2058 Rocket 3.4 20:43:27 10° SSW 20:47:46 66° W 20:52:08 10° N
BREEZE-M DEB (TANK) 3.7 20:46:45 10° NNW 20:47:45 12° N 20:47:45 12° N
Cosmos 1812 Rocket 4.1 20:48:56 35° E 20:49:02 35° E 20:53:06 10° NNE
Cosmos 1544 3.3 20:49:31 44° E 20:49:31 44° E 20:52:46 10° NNE
Cosmos 2327 Rocket 4.3 20:43:37 10° S 20:49:42 69° E 20:55:45 10° NNE
Cosmos 2084 3.1 20:47:18 10° SSW 20:51:25 83° ESE 20:54:36 15° NE
Cosmos 2228 3.5 20:48:17 10° SSW 20:52:37 63° W 20:56:57 10° N
NOSS 3-1 (C) 4.0 20:47:25 10° NNW 20:55:03 74° NE 21:00:23 25° SE
Cosmos 1763 Rocket 3.8 20:51:38 10° SSW 20:56:41 65° WNW 21:01:49 10° NNE
Meteor 2-8 Rocket 4.4 20:53:18 10° N 20:59:24 63° E 21:03:15 23° SSE
MOS 1-B Rocket 3.9 20:55:10 14° SSE 21:00:44 74° ENE 21:06:30 10° N
ATLAS CENTAUR R/B 3.3 20:50:01 10° NW 21:03:21 84° SW 21:05:46 34° SE
Meteor 2-5 Rocket 4.4 20:58:25 10° NNW 21:04:11 57° W 21:09:47 10° S
Cosmos 540 Rocket 3.4 21:01:00 10° S 21:05:58 56° ESE 21:10:59 10° NNE
GEOS 3 Rocket 3.6 21:01:17 10° NE 21:06:41 70° SE 21:12:02 10° SSW
Cosmos 1943 Rocket 3.7 21:05:49 10° NW 21:10:46 34° WSW 21:15:45 10° SSW
Meteor 2-19 Rocket 4.3 21:05:05 10° S 21:11:04 67° E 21:17:04 10° NNE
Meteor 1-22 Rocket 4.3 21:07:52 10° SSW 21:13:41 77° W 21:19:17 10° N
Spot 2 Rocket 3.6 21:12:52 24° S 21:15:58 74° WSW 21:21:02 10° NNW
Cosmos 836 Rocket 4.3 21:13:04 10° SSW 21:18:20 78° ESE 21:23:38 10° NNE
Cosmos 1939 Rocket 3.1 21:19:29 57° NNE 21:19:29 57° NNE 21:22:42 10° N
BREEZE-M DEB (TANK) 3.1 21:09:11 10° WSW 21:20:05 84° SSE 21:21:11 54° ENE
Cosmos 1766 4.0 21:17:29 10° SSW 21:21:20 53° W 21:25:12 10° N
Meteor 1-21 Rocket 4.5 21:19:48 10° N 21:25:08 48° ENE 21:25:08 48° ENE
Cosmos 2154 Rocket 3.8 21:22:41 10° S 21:28:53 83° E 21:35:11 10° N
COSMOS 2406 3.2 21:24:38 10° SSW 21:30:19 82° WNW 21:36:06 10° NNE
Cosmos 2341 Rocket 3.9 21:34:12 62° ESE 21:34:47 65° E 21:40:56 10° NNE
Cosmos 1125 Rocket 3.4 21:33:20 10° NNW 21:38:40 90° WSW 21:38:48 85° SSE
H-2A R/B 4.0 21:42:16 16° NNE 21:42:16 16° NNE 21:43:41 10° NNE
NOAA 11 4.5 21:42:52 53° NE 21:42:52 53° NE 21:47:23 10° N
Helios 1A 4.5 21:47:42 30° N 21:47:42 30° N 21:49:52 10° N
Envisat 4.1 21:45:42 25° SSW 21:48:06 40° W 21:52:52 10° NNW
ERS-1 Rocket 4.1 21:51:22 34° NNE 21:51:22 34° NNE 21:54:24 10° N
ARGOS 4.3 21:57:12 34° NNE 21:57:12 34° NNE 22:00:28 10° N
Resurs 01 Rocket 3.9 21:54:17 14° SW 21:56:50 21° W 22:00:12 10° NW
Cosmos 372 Rocket 4.4 21:56:46 10° NNW 22:01:24 59° WNW 22:01:24 59° WNW
Nadezhda 3 Rocket 4.5 21:57:34 10° NNW 22:03:45 57° W 22:05:26 44° SW
ATLAS 2AS CENTAUR R/B 3.5 22:18:41 10° NNW 22:25:45 47° NNE 22:25:45 47° NNE
USA 267 4.5 22:55:44 32° N 22:55:44 32° N 23:00:35 10° NW
Cosmos 1980 Rocket 4.4 22:54:48 10° N 22:56:29 19° N 22:56:29 19° N
